OSCAR 7 (AO-7) 1 07530U 74089B 26247.95257130 -.00000047 00000+0 -27344-5 0 9993 2 07530 101.9921 262.0334 0012133 340.7848 134.2185 12.53699382370512 PHASE 3B (AO-10) 1 14129U 83058B 26246.05220749 -.00000009 00000+0 00000+0 0 9998 2 14129 25.9715 206.8146 5985571 137.0259 289.6643 2.05870144297098 UOSAT 2 (UO-11) 1 14781U 84021B 26247.88801973 .00000657 00000+0 72183-4 0 9993 2 14781 97.8150 212.6188 0006043 284.3185 75.7362 14.90968564269004 LUSAT (LO-19) 1 20442U 90005G 26247.85719567 .00000021 00000+0 24405-4 0 9996 2 20442 98.8832 271.8499 0011052 337.6619 22.4082 14.34141783913812 EYESAT A (AO-27) 1 22825U 93061C 26247.43284105 .00000025 00000+0 26368-4 0 9991 2 22825 98.6811 314.7904 0007619 221.9481 138.1118 14.30959236718339 ITAMSAT (IO-26) 1 22826U 93061D 26247.17888169 .00000027 00000+0 26844-4 0 9994 2 22826 98.6759 314.4625 0008399 204.9874 155.0903 14.31387886718619 RADIO ROSTO (RS15) 1 23439U 94085A 26247.84744603 -.00000041 00000+0 31420-4 0 9993 2 23439 64.8167 174.3812 0158835 349.4951 10.2669 11.27584103304885 JAS-2 (FO-29) 1 24278U 96046B 26247.78871569 -.00000035 00000+0 27571-5 0 9995 2 24278 98.5179 85.7488 0348880 249.8087 106.5216 13.53277604483939 TECHSAT 1B (GO-32) 1 25397U 98043D 26247.71956049 .00000021 00000+0 29389-4 0 9999 2 25397 99.0142 242.5099 0001541 31.9632 328.1639 14.24441238462657 ISS (ZARYA) 1 25544U 98067A 26247.78883467 .00003383 00000+0 69578-4 0 9997 2 25544 51.6313 266.1160 0005045 107.1671 252.9870 15.48989366584098 PCSAT (NO-44) 1 26931U 01043C 26247.85219061 .00000041 00000+0 46187-4 0 9996 2 26931 67.0511 38.2153 0005690 271.3452 88.6999 14.31980742301854 SAUDISAT 1C (SO-50) 1 27607U 02058C 26247.45171561 .00000498 00000+0 76553-4 0 9998 2 27607 64.5503 243.7133 0072586 247.9077 111.4311 14.83193270276212 CUTE-1 (CO-55) 1 27844U 03031E 26247.48640235 .00000142 00000+0 80385-4 0 9999 2 27844 98.6770 255.0598 0008765 321.2746 38.7804 14.24376449202962 CUBESAT XI-IV (CO-57) 1 27848U 03031J 26246.95257060 .00000124 00000+0 73395-4 0 9997 2 27848 98.6799 254.1815 0009072 343.0465 17.0409 14.23655714202584 MOZHAETS 4 (RS22) 1 27939U 03042A 26248.01885382 .00000434 00000+0 75000-4 0 9992 2 27939 98.3491 74.6540 0011814 21.4666 138.1958 14.73586967227307 CUBESAT XI-V 1 28895U 05043F 26247.89467201 .00000661 00000+0 11168-3 0 9994 2 28895 98.3089 45.2477 0013064 316.5132 43.5043 14.72806912113481 CUTE-1.7+APD II (CO-65) 1 32785U 08021C 26247.91258394 .00002790 00000+0 17533-3 0 9997 2 32785 97.8361 231.0635 0010260 112.9999 247.2313 15.10087256997226 SEEDS II (CO-66) 1 32791U 08021J 26247.45545780 .00011934 00000+0 35108-3 0 9999 2 32791 97.7569 249.3099 0004082 61.8539 298.3115 15.35243240999442 YUBILEINY (RS30) 1 32953U 08025A 26247.93274909 .00000006 00000+0 -30084-4 0 9996 2 32953 82.5041 305.8453 0020504 135.7219 224.5506 12.43182555829606 KKS-1 (KISEKI) 1 33499U 09002H 26247.86198651 .00000671 00000+0 88837-4 0 9995 2 33499 98.1158 171.5624 0008805 39.9151 320.2708 14.83293678948001 SWISSCUBE 1 35932U 09051B 26247.73443985 .00000502 00000+0 10846-3 0 9999 2 35932 98.3951 156.9815 0006322 336.6599 23.4314 14.62609172900787 BEESAT-1 1 35933U 09051C 26247.58051405 .00000414 00000+0 92748-4 0 9999 2 35933 98.3878 156.2924 0005173 355.3883 4.7269 14.61827199900788 ITUPSAT1 1 35935U 09051E 26246.68203773 .00000412 00000+0 94799-4 0 9994 2 35935 98.3958 154.4873 0007654 5.5328 354.5955 14.60538485900195 XIWANG-1 (HOPE-1) 1 36122U 09072B 26247.96689133 -.00000149 00000+0 -27353-3 0 9996 2 36122 100.4100 200.5458 0008132 54.2202 305.9666 13.16441238803509 O/OREOS (USA 219) 1 37224U 10062C 26247.01194382 .00001095 00000+0 10850-3 0 9997 2 37224 71.9676 261.7461 0016632 274.7988 85.1284 14.94003720128410 JUGNU 1 37839U 11058B 26247.14348934 .00000380 00000+0 58633-4 0 9991 2 37839 19.9596 188.7281 0018500 227.9762 246.4853 14.13795407770215 SRMSAT 1 37841U 11058D 26247.55170970 .00000352 00000+0 47043-4 0 9994 2 37841 19.9722 299.0883 0011805 358.2365 152.2976 14.11590334769040 STRAND-1 1 39090U 13009E 26247.42366622 .00000130 00000+0 58119-4 0 9997 2 39090 98.3966 65.7324 0008627 2.4793 357.6435 14.37202026708442 ZACUBE-1 (TSHEPISOSAT) 1 39417U 13066B 26247.84839164 .00003527 00000+0 27127-3 0 9992 2 39417 97.8094 210.5792 0040925 346.7483 13.2662 15.01720866692681 GOMX-1 1 39430U 13066Q 26247.98563101 .00001249 00000+0 19269-3 0 9994 2 39430 97.6449 83.4194 0127907 180.3916 179.7212 14.69665425681634 CUBEBUG-2 (LO-74) 1 39440U 13066AA 26247.83044577 .00001421 00000+0 13386-3 0 9996 2 39440 97.8965 197.1975 0058330 122.1723 238.5173 14.94214617688888 FUNCUBE-1 (AO-73) 1 39444U 13066AE 26247.90903049 .00003511 00000+0 21472-3 0 9993 2 39444 97.8363 221.1119 0033645 293.7219 66.0482 15.10481180691699 UWE-3 1 39446U 13066AG 26247.81031645 .00002307 00000+0 19851-3 0 9999 2 39446 97.8767 204.4760 0049456 54.8951 305.6892 14.97480795689498 UNISAT-6 1 40012U 14033C 26247.93175377 .00001306 00000+0 14378-3 0 9996 2 40012 97.7982 39.3091 0045098 163.8587 196.4079 14.88579846658027 DUCHIFAT-1 1 40021U 14033M 26247.46261308 .00457438 86629-4 11824-2 0 9993 2 40021 98.0269 319.1924 0006218 232.5756 127.4952 15.95090748668232 QB50P1 1 40025U 14033R 26247.01103246 .00004758 00000+0 22880-3 0 9996 2 40025 98.0979 263.7537 0007358 324.9909 35.0839 15.19328867664999 LILACSAT-2 1 40908U 15049K 26247.92644741 .00011206 00000+0 17503-3 0 9996 2 40908 97.4582 287.9115 0005202 335.3655 24.7349 15.53969771608129 FOX-1A (AO-85) 1 40967U 15058D 26247.82546466 .00000878 00000+0 88799-4 0 9994 2 40967 64.7744 31.4070 0137088 26.6747 334.1331 14.91358488125449 CAS-2T & KS-1Q 1 41847U 16066G 26247.81354150 .00000411 00000+0 67688-4 0 9995 2 41847 98.3764 322.6359 0340110 247.8509 108.6263 14.44825937516293 RADFXSAT (FOX-1B) 1 43017U 17073E 26247.89020917 .00004897 00000+0 20898-3 0 9997 2 43017 97.4583 113.4784 0149155 53.5724 307.9153 15.13765391477447 DIWATA-2B 1 43678U 18084H 26247.98756264 .00000902 00000+0 76341-4 0 9992 2 43678 98.1192 87.7090 0010871 262.4170 97.5818 15.00701864428183 ES'HAIL 2 1 43700U 18090A 26247.88612721 .00000136 00000+0 00000+0 0 9996 2 43700 0.0113 205.6675 0002480 355.4288 127.7065 1.00269705 28470 FOX-1CLIFF (AO-95) 1 43770U 18099N 26247.93307238 .00006118 00000+0 22481-3 0 9999 2 43770 97.4308 307.9388 0009778 71.1591 289.0708 15.28237080425390 ITASAT 1 43786U 18099AE 26247.90145020 .00003468 00000+0 16417-3 0 9999 2 43786 97.3957 297.8381 0013877 76.8303 283.4480 15.19920886425011 JY1SAT (JO-97) 1 43803U 18099AX 26246.72149691 .00011876 00000+0 34094-3 0 9999 2 43803 97.4046 309.9287 0004940 7.3493 352.7822 15.35992618425673 UWE-4 1 43880U 18111E 26247.24582060 .00028782 00000+0 49602-3 0 9993 2 43880 97.5812 179.5585 0008850 53.7298 306.4769 15.50978455423016 TIANYAN 01 1 44881U 19093C 26247.94188052 .00000096 00000+0 16774-4 0 9998 2 44881 97.7462 318.2065 0013355 178.3748 181.7514 14.86619653363268 RS-44 & BREEZE-KM R/B 1 44909U 19096E 26247.12270283 .00000006 00000+0 -14150-4 0 9998 2 44909 82.5189 287.2592 0216719 320.0508 38.4816 12.79749119312444 SALSAT 1 46495U 20068K 26247.46102648 .00004504 00000+0 15402-3 0 9993 2 46495 97.8892 255.4274 0010305 34.0078 326.1820 15.30796995327483 XW-3 (CAS-9) 1 50466U 21131B 26247.95429156 -.00000026 00000+0 57350-5 0 9994 2 50466 98.4968 339.9109 0003507 203.3602 156.7428 14.41417302246600 GREENCUBE (IO-117) 1 53109U 22080E 26247.40320627 -.00000003 00000+0 00000+0 0 9997 2 53109 70.1231 270.6946 0009208 272.1750 87.7855 6.42583782 97158 UMKA 1 (RS40S) 1 57172U 23091G 26247.88328636 .00002740 00000+0 12444-3 0 9992 2 57172 97.4974 306.2845 0012098 193.9271 166.1632 15.21586835176120 CUBESX-HSE 3 (RS42S) 1 57178U 23091N 26247.91846576 .00007481 00000+0 23702-3 0 9996 2 57178 97.5016 314.5848 0010744 161.5220 198.6414 15.32971887176631 MONITOR-3 (RS58S) 1 57180U 23091Q 26247.93233666 .00006051 00000+0 21575-3 0 9999 2 57180 97.5007 312.0117 0011511 170.3095 189.8369 15.29224180176473 MONITOR-4 (RS57S) 1 57182U 23091S 26247.90678953 .00005616 00000+0 19989-3 0 9992 2 57182 97.5001 311.9616 0011495 170.7755 189.3698 15.29315197176478 MONITOR-2 (RS39S) 1 57184U 23091U 26247.87691318 .00002270 00000+0 10997-3 0 9993 2 57184 97.4996 305.6458 0010748 186.8607 173.2482 15.19528834176050 SVYATOBOR 1 (RS60S) 1 57187U 23091X 26247.92870971 .00004743 00000+0 17741-3 0 9997 2 57187 97.5015 312.2220 0009620 162.1624 197.9955 15.27783676176481 VIZARD-METEO (RS38S) 1 57189U 23091Z 26247.88970103 .00010477 00000+0 27922-3 0 9995 2 57189 97.5019 319.0775 0007908 137.9566 222.2287 15.38329950176932 POLYTECH-UNIVERSE 3 (R*) 1 57191U 23091AB 26247.89294589 .00002391 00000+0 11483-3 0 9997 2 57191 97.4970 305.1665 0014515 206.0094 154.0413 15.19745883176052 UTMN 2 (RS27S) 1 57203U 23091AP 26247.89360571 .00007438 00000+0 22993-3 0 9991 2 57203 97.5014 316.2892 0008463 146.8372 213.3402 15.33782979176753 KUZGTU 1 (RS47S) 1 57217U 23091AV 26247.91901750 .00006649 00000+0 22114-3 0 9997 2 57217 97.4988 313.2720 0010894 165.6925 194.4626 15.31455593176572 SONATE-2 1 59112U 24043Q 26247.39762554 .00037334 00000+0 38219-3 0 9998 2 59112 97.5610 43.0681 0005063 265.5553 94.5128 15.64903119140255 MESAT1 1 60209U 24125G 26247.87626115 .00064183 00000+0 45721-3 0 9991 2 60209 97.2145 107.6970 0005221 268.3328 91.7339 15.73632815122052 GRBBETA 1 60237U 24128C 26247.84902144 .00001226 00000+0 95027-4 0 9995 2 60237 61.9898 296.6676 0029101 152.1233 208.1427 15.07126156118270 OOV-CUBE (TUBSAT-30) 1 60240U 24128F 26247.56189344 .00000943 00000+0 84515-4 0 9992 2 60240 61.9947 308.7365 0033610 152.1237 208.1664 15.03066832118041 COLIBRI-S (RS67S) 1 61746U 24199M 26247.89152484 .00015067 00000+0 26166-3 0 9993 2 61746 97.2837 122.5970 0007719 6.7795 353.3560 15.50900083149758 HORS 3 (RS81S) 1 61753U 24199U 26247.93634441 .00030084 00000+0 36293-3 0 9992 2 61753 97.2827 125.6341 0004858 14.5113 345.6283 15.60709194149974 HORS 4 (RS82S) 1 61754U 24199V 26247.91568072 .00045743 00000+0 41129-3 0 9999 2 61754 97.2760 127.4687 0003202 15.0207 345.1149 15.68113369150100 SIT-2086 1 61764U 24199AF 26247.88261509 .00031426 00000+0 40722-3 0 9992 2 61764 97.2782 125.7782 0004490 352.8974 7.2218 15.58813518146824 ALTAIR (RS65S) 1 61779U 24199AW 26247.89332765 .00006098 00000+0 16304-3 0 9998 2 61779 97.2903 116.7436 0013021 27.1802 333.0122 15.38351501149366 ASRTU-1 (AO-123) 1 61781U 24199AY 26247.89380300 .00004264 00000+0 12080-3 0 9999 2 61781 97.2872 115.8524 0014284 29.4559 330.7488 15.36714330146163 SAMSAT-IONOSPHERE (RS7*) 1 61784U 24199BB 26247.91807760 .00042408 00000+0 42616-3 0 9999 2 61784 97.2783 126.0514 0005848 6.4439 353.6895 15.65339293150005 RTU MIREA 1 (RS51S) 1 61785U 24199BC 26247.89999388 .00066512 00000+0 51854-3 0 9991 2 61785 97.2763 127.4103 0004473 9.3860 350.7486 15.71491408146942 LASARSAT 1 62391U 24247Q 26247.17999666 .00029551 00000+0 49584-3 0 9998 2 62391 44.9718 176.6965 0007695 130.3687 229.7877 15.51300458 95560 CROCUBE 1 62394U 24247T 26247.83298899 .00034128 00000+0 51644-3 0 9990 2 62394 44.9693 168.7639 0008306 146.2854 213.8569 15.54096712 95714 TEVEL2-4 1 63213U 25052D 26246.94808636 .00012834 00000+0 35440-3 0 9999 2 63213 97.3775 143.5693 0003253 139.2354 220.9134 15.37194006 82205 TEVEL2-5 1 63214U 25052E 26247.43425968 .00011768 00000+0 32736-3 0 9998 2 63214 97.3773 143.9804 0003099 140.3764 219.7707 15.36988201 82274 TEVEL2-6 1 63215U 25052F 26246.66710380 .00012994 00000+0 36177-3 0 9993 2 63215 97.3777 143.1954 0002995 142.8392 217.3060 15.36937348 82154 TEVEL2-1 1 63217U 25052H 26247.44224453 .00011443 00000+0 32523-3 0 9992 2 63217 97.3749 143.4974 0002724 152.2275 207.9115 15.36325396 82256 TEVEL2-3 1 63218U 25052J 26246.65196619 .00012454 00000+0 35307-3 0 9993 2 63218 97.3754 142.7390 0002340 150.0261 210.1118 15.36381799 82137 TEVEL2-2 1 63219U 25052K 26247.18142587 .00012236 00000+0 34748-3 0 9994 2 63219 97.3750 143.2401 0002736 154.6183 205.5196 15.36333945 82218 OTP-2 1 63235U 25052AB 26246.66545987 .00004166 00000+0 17029-3 0 9991 2 63235 97.3741 137.9289 0004398 237.3983 122.6831 15.24905017 81826 TEVEL2-9 1 63237U 25052AD 26246.93982935 .00010551 00000+0 32156-3 0 9994 2 63237 97.3810 142.1909 0004780 200.9355 159.1692 15.34138426 82099 TEVEL2-7 1 63238U 25052AE 26247.64977952 .00009774 00000+0 30128-3 0 9999 2 63238 97.3813 142.7795 0004794 198.9553 161.1512 15.33797436 82199 TEVEL2-8 1 63239U 25052AF 26247.65871626 .00009999 00000+0 30827-3 0 9997 2 63239 97.3814 142.7634 0004847 199.7900 160.3156 15.33787364 82191 INNOSAT 16 (RS92S7) 1 64878U 25155C 26247.87770858 .00003158 00000+0 12480-3 0 9996 2 64878 97.4657 214.8347 0008320 264.0835 95.9455 15.26220298 92828 GEOSCAN 6 (RS92S6) 1 64879U 25155D 26247.92665554 .00006262 00000+0 20807-3 0 9990 2 64879 97.4644 216.9066 0005463 248.2182 111.8479 15.31548056 92960 GEOSCAN 1 (RS92S1) 1 64880U 25155E 26247.89471443 .00006500 00000+0 21112-3 0 9995 2 64880 97.4640 217.0989 0005279 247.7850 112.2832 15.32267532 92972 239ALFEROV (RS61S) 1 64881U 25155F 26247.86799248 .00009475 00000+0 28169-3 0 9992 2 64881 97.4635 217.9298 0004693 244.0104 116.0656 15.34961333 93025 GEOSCAN 2 (RS92S2) 1 64890U 25155Q 26247.87508879 .00006763 00000+0 21792-3 0 9993 2 64890 97.4639 217.2619 0004918 228.0174 132.0649 15.32512613 92983 GEOSCAN 5 (RS92S5) 1 64891U 25155R 26247.90653033 .00008633 00000+0 25455-3 0 9999 2 64891 97.4628 218.1352 0003594 249.1493 110.9365 15.35255386 93045 GEOSCAN 4 (RS92S4) 1 64892U 25155S 26247.88168962 .00009422 00000+0 27587-3 0 9994 2 64892 97.4634 218.1849 0003473 248.6699 111.4174 15.35450082 93046 GEOSCAN 3 (RS92S3) 1 64893U 25155T 26247.89645292 .00011645 00000+0 31407-3 0 9998 2 64893 97.4619 218.8891 0003235 244.8368 115.2541 15.37955247 93091 INNOSAT 3 (RS92S0) 1 64894U 25155U 26247.88808735 .00031492 00000+0 56751-3 0 9992 2 64894 97.4555 221.6679 0001816 196.3288 163.7905 15.49732325 93288 KNACKSAT-2 1 67683U 98067XZ 26247.72783605 .00043634 00000+0 39481-3 0 9996 2 67683 51.6251 252.1814 0007548 120.5259 239.6483 15.67596412 32728 MARINA 1 69920U 26156BD 26246.95610418 .00001332 00000+0 13645-3 0 9990 2 69920 97.7458 146.4496 0006684 331.7450 28.3405 14.92128142 8744